RH
85 84 84 84 85 86 88 89 90 91 91 91 90 89 87 85 84 82 79 78 77 78 79 82 85 88 90 92 94 95 97 97 98 99 99 100 100 100 100 100 100 100 100 100 100 100 100 100 100 99 97 93 85 77 68 56 42 29 20 16 15 14 15 17 19 19 22 25 28 31 31 30 30 27 24 22 19 16 14 14 14 12 11 10 13
86 86 86 86 85 84 85 85 87 88 88 89 89 89 88 86 85 84 81 81 80 79 77 76 78 79 81 84 87 89 91 93 94 95 95 97 97 98 98 99 100 100 99 100 100 100 100 100 100 100 100 99 98 96 94 88 78 62 44 31 22 17 16 17 17 16 17 18 20 24 27 27 28 28 26 24 22 19 17 15 14 12 11 11 16
88 87 87 88 87 87 86 85 86 86 86 87 87 87 87 86 86 84 82 83 82 81 80 79 79 78 77 77 79 82 85 87 90 91 92 93 93 94 95 95 97 97 98 99 99 100 100 100 100 100 100 100 100 100 100 99 99 93 83 70 52 34 22 18 20 20 19 18 17 18 20 21 23 25 27 26 23 21 18 16 14 13 12 14 22
83 85 87 89 90 90 89 88 88 88 88 89 89 90 89 89 89 89 88 87 85 84 82 81 81 81 81 79 77 77 80 83 87 89 90 91 91 92 93 93 94 95 96 97 99 100 100 99 100 100 100 100 99 100 100 100 100 100 99 97 90 73 48 27 22 25 24 22 21 20 19 20 22 25 28 27 25 24 21 19 16 14 16 23 36
74 76 79 84 88 91 93 94 93 93 94 94 94 94 94 94 94 93 92 91 89 88 86 84 82 81 81 82 82 81 80 81 83 85 86 89 92 94 94 94 95 94 94 96 97 99 100 100 100 100 100 100 100 100 100 100 100 100 100 100 100 99 84 54 32 29 31 29 26 26 26 26 27 28 31 31 30 29 26 22 19 20 25 35 52
76 75 76 78 81 85 89 93 96 97 99 99 98 99 98 98 97 96 96 94 92 91 90 88 86 83 82 81 83 85 85 83 81 81 84 88 92 96 96 96 96 95 96 96 96 97 98 98 99 100 100 100 100 100 100 100 100 99 101 100 99 101 100 83 56 40 40 38 34 34 34 34 35 36 37 38 37 35 31 26 23 25 33 47 67
85 83 82 82 84 86 87 91 96 98 99 99 99 100 100 100 100 99 99 97 96 95 93 92 90 87 85 83 82 84 86 87 84 81 82 86 91 93 95 96 97 97 97 97 97 96 96 97 98 99 100 99 99 100 100 100 100 100 99 100 100 99 101 97 76 55 51 50 45 42 42 43 45 46 47 46 44 41 36 31 29 34 48 66 80
93 92 90 88 89 89 88 91 95 97 97 97 98 98 98 99 100 100 100 100 99 99 97 96 93 90 87 85 84 83 84 85 85 85 85 86 88 91 93 95 97 98 99 99 99 98 96 97 97 97 98 99 99 100 99 99 99 100 100 99 101 100 100 100 86 68 61 59 54 51 50 51 53 54 55 54 51 47 41 40 44 54 70 81 86
92 93 94 93 91 88 86 90 93 93 94 95 97 96 95 96 96 98 99 100 100 100 100 99 97 94 91 87 84 83 82 83 84 87 89 89 89 90 92 95 97 99 100 100 100 99 99 98 98 98 99 99 100 100 100 100 99 99 100 100 100 100 100 100 90 75 68 65 62 59 58 59 60 61 61 60 57 53 50 54 62 73 83 85 86
86 87 90 93 93 89 88 91 92 92 93 94 95 96 96 95 94 95 96 97 99 100 100 100 100 99 97 93 88 83 81 81 83 86 90 91 92 91 91 93 95 97 99 100 100 100 100 100 99 100 100 100 101 100 100 100 100 100 100 100 100 100 100 100 93 80 71 68 66 64 63 65 65 65 67 66 63 60 59 66 75 82 87 89 89
82 82 86 90 90 90 89 89 88 89 92 93 91 93 96 97 98 98 97 97 98 99 100 100 100 100 100 99 97 91 85 81 80 83 88 91 93 94 93 93 93 95 96 97 99 99 100 100 100 100 100 100 100 100 100 100 100 100 100 100 100 100 99 99 95 84 74 69 67 67 67 67 67 69 72 71 67 65 66 72 81 86 91 93 93
78 80 85 88 89 88 86 84 83 83 85 85 82 81 84 89 93 97 99 100 100 99 100 100 100 100 100 100 100 99 95 88 82 81 85 89 92 94 95 95 94 94 94 95 97 98 99 100 100 100 100 100 100 100 100 100 100 100 100 100 100 99 98 99 97 88 78 71 69 69 69 70 73 74 75 74 71 69 71 78 87 92 96 98 95
82 85 89 93 93 89 85 82 82 81 82 83 82 79 78 79 81 85 90 95 98 100 100 100 100 100 100 100 100 100 100 97 90 84 82 85 90 93 94 96 95 94 94 94 96 98 98 99 98 98 99 99 100 100 100 100 100 100 100 100 99 98 98 99 98 91 83 76 74 75 73 75 78 78 77 76 73 73 78 87 95 98 100 99 94
89 91 94 96 93 90 88 86 85 85 86 88 88 87 86 84 81 81 82 83 87 92 97 99 100 100 100 100 100 99 100 100 98 92 85 82 87 93 94 95 95 94 94 93 95 96 97 97 96 96 96 96 97 99 100 100 100 100 100 99 98 98 98 100 99 93 88 83 82 84 84 83 84 83 81 79 77 80 88 95 100 100 98 96 92
92 94 94 91 88 89 89 88 86 86 86 87 87 86 87 86 85 85 83 82 81 82 88 94 97 100 100 100 100 100 100 100 100 99 92 84 85 92 96 94 91 90 90 90 91 92 93 95 96 96 95 94 95 98 99 100 100 100 100 99 98 98 97 98 99 95 90 86 85 88 90 90 90 89 87 84 85 91 98 100 100 98 95 94 92
94 94 91 91 91 91 90 87 85 84 83 83 83 82 83 83 83 84 83 83 82 80 81 86 90 95 99 100 100 100 100 100 100 100 99 92 87 90 96 96 90 86 85 86 87 89 90 92 95 96 95 92 94 97 99 100 100 99 99 98 97 96 96 98 100 97 91 87 87 89 92 93 92 91 90 91 94 98 101 100 98 97 96 96 94
91 88 90 95 94 91 89 87 85 83 82 82 81 81 82 82 82 84 84 86 87 86 85 85 86 89 93 97 100 100 100 100 100 100 100 98 92 90 93 95 91 85 84 85 86 88 88 90 93 95 94 93 94 97 98 98 99 98 98 97 96 95 96 99 101 98 92 88 89 92 94 94 93 90 92 97 100 100 99 97 95 96 98 98 93
84 82 88 93 90 88 87 85 85 85 84 84 83 83 84 84 84 86 89 93 96 96 95 93 90 87 88 91 97 100 100 100 100 100 100 99 97 92 91 94 93 87 84 85 86 87 87 89 92 92 93 93 94 96 97 97 97 97 97 97 96 97 97 99 101 97 91 90 92 94 94 93 91 91 95 99 99 97 96 95 95 97 97 95 91
83 85 89 89 87 86 85 85 86 86 87 87 86 86 87 88 88 89 92 96 100 100 100 99 95 91 90 91 94 98 100 100 100 100 100 100 100 96 93 94 94 90 86 85 87 87 88 90 91 92 92 93 94 95 96 96 96 96 97 98 98 97 96 98 99 96 91 90 91 92 91 91 91 93 97 99 99 96 94 93 96 98 97 92 91
85 88 88 86 85 83 84 86 87 87 88 88 87 88 89 90 92 93 94 98 100 99 99 99 97 96 96 96 96 98 100 100 100 100 100 100 100 99 97 94 92 90 88 87 87 89 90 91 93 94 94 94 93 94 95 95 96 96 98 99 97 96 96 98 99 97 92 90 90 90 91 91 93 96 98 100 100 97 93 93 96 97 95 91 91
85 87 86 84 83 82 83 86 86 86 87 87 87 88 91 93 95 96 97 99 100 99 97 97 97 97 99 100 99 99 100 100 100 100 100 100 100 100 99 98 95 94 92 90 89 90 91 92 94 97 97 95 94 95 95 97 98 98 98 98 97 98 99 100 100 98 95 93 93 93 93 94 96 98 99 99 99 97 96 95 95 94 93 92 92
86 86 84 83 82 82 84 85 86 85 85 85 87 88 90 92 93 95 97 99 100 100 98 96 96 96 97 99 100 100 100 100 100 100 100 100 100 100 100 100 99 99 99 96 94 93 93 94 97 98 98 95 94 95 97 100 99 98 97 98 99 101 101 100 100 100 98 97 96 95 95 96 97 98 97 96 96 97 98 96 95 94 94 93 93
86 84 84 83 81 82 83 83 84 85 84 85 86 87 89 91 92 95 99 100 100 100 98 97 97 96 95 97 98 99 100 100 100 100 100 100 100 100 100 100 100 100 100 100 99 98 98 98 99 99 97 96 96 97 100 101 99 97 97 98 100 102 101 100 101 101 100 99 98 97 97 96 96 95 94 95 96 98 99 98 97 96 94 93 95
85 86 85 82 81 82 83 82 83 85 84 84 85 88 90 92 92 95 98 98 99 100 99 99 98 96 95 96 97 98 98 99 100 100 100 100 100 100 100 100 100 100 100 100 100 100 100 100 100 98 97 96 96 97 99 100 98 96 97 98 100 101 100 99 99 99 100 101 100 98 96 95 94 94 94 96 98 99 98 98 97 97 96 97 96
85 86 84 82 81 82 82 83 84 84 84 85 88 90 92 94 95 96 96 98 99 100 100 100 99 97 96 96 96 96 96 96 98 99 99 100 100 100 100 100 100 100 100 100 100 100 100 100 99 99 98 97 96 97 98 98 97 96 98 99 100 100 98 97 99 100 101 100 97 95 93 92 94 95 96 98 99 96 96 96 96 96 97 94 84
87 86 84 83 82 82 84 84 84 83 84 87 89 91 94 96 97 97 98 100 101 99 99 99 100 99 98 96 95 95 95 95 96 96 98 99 100 100 100 100 100 100 100 100 100 100 100 101 100 100 100 100 99 98 97 96 96 97 99 100 100 100 98 98 99 99 98 96 93 91 92 94 95 95 97 98 97 95 95 95 94 94 91 80 63
87 86 85 83 82 84 86 85 83 82 84 86 87 89 94 96 96 97 100 101 100 98 98 100 100 100 100 98 97 96 94 94 95 95 95 96 97 99 100 100 100 100 100 100 100 100 100 100 101 101 101 101 101 99 97 97 98 98 100 101 100 99 99 99 99 97 95 93 92 94 96 97 95 94 96 97 97 97 97 96 94 90 79 60 42
88 87 85 83 84 86 87 85 84 83 84 86 86 87 91 93 93 95 99 100 100 98 98 100 101 101 100 100 99 98 97 95 94 94 94 94 94 97 100 101 100 100 100 100 99 100 100 101 100 101 101 101 101 99 98 98 99 100 100 100 100 99 100 100 100 98 95 95 97 98 98 96 93 94 96 96 96 97 97 96 92 81 61 41 29
89 86 84 84 85 86 86 86 85 84 84 86 85 85 88 90 91 92 94 97 98 98 97 98 99 100 100 101 100 100 99 98 97 97 95 94 95 96 98 100 101 101 100 99 99 100 101 101 101 101 101 101 100 98 98 99 100 101 101 100 100 100 100 100 100 97 96 97 98 96 94 93 94 96 96 95 94 95 96 93 82 62 42 29 26
88 85 84 85 85 85 85 85 86 86 85 85 85 84 83 85 88 91 92 93 94 96 96 96 97 98 99 100 100 101 101 101 100 99 97 96 97 97 99 100 101 101 101 101 101 101 101 102 102 101 101 101 99 99 99 100 101 101 100 100 100 99 98 98 98 96 97 97 95 93 94 95 95 95 95 93 93 94 92 82 63 42 29 26 26
87 86 86 86 86 86 86 86 86 87 86 86 87 86 83 82 85 90 93 94 92 93 94 95 96 96 97 97 98 99 100 101 101 99 98 98 99 99 100 101 101 101 102 102 101 101 100 101 102 102 101 101 100 100 101 100 100 99 98 98 99 96 94 94 95 96 97 95 93 95 96 96 95 95 94 92 93 91 81 62 42 30 26 26 25
86 87 87 86 86 86 86 87 88 87 87 87 88 88 86 84 83 85 89 92 92 92 93 93 94 95 95 96 96 96 97 99 99 99 99 99 100 100 101 101 100 100 101 101 101 100 100 100 101 102 101 101 101 102 101 99 98 97 95 95 95 94 91 92 94 95 94 93 95 98 97 96 96 95 93 93 91 81 62 42 30 26 26 25 24
85 88 87 87 87 86 87 88 87 87 88 90 90 88 89 89 88 86 86 87 89 92 95 94 93 93 93 93 94 95 96 96 96 97 98 99 99 100 100 101 100 99 100 100 100 100 100 100 101 101 101 101 101 101 100 99 97 95 94 93 93 92 92 93 94 95 95 97 99 99 97 96 94 93 93 92 82 63 43 30 26 27 26 24 26
80 85 87 88 88 87 88 88 85 85 88 91 91 90 90 92 92 91 89 87 87 89 94 96 95 93 92 93 93 94 96 96 95 96 97 98 99 100 100 101 100 99 100 100 100 100 100 100 101 102 102 101 101 101 100 98 97 96 95 95 94 94 95 95 95 97 99 99 97 95 94 93 92 92 92 83 63 43 31 27 26 26 25 26 32
70 78 84 88 88 88 89 87 85 85 87 89 90 91 93 93 93 93 93 92 90 89 91 95 96 95 94 94 94 94 95 95 96 96 97 97 99 101 101 100 100 100 100 100 100 100 100 100 101 102 101 101 102 101 98 97 97 97 96 95 95 95 95 96 97 99 98 95 93 93 92 90 91 91 81 61 41 30 26 26 26 25 25 32 42
55 68 80 86 87 88 89 88 86 87 88 89 90 91 92 93 93 94 94 94 94 93 93 94 95 96 96 95 96 95 95 95 96 97 97 98 100 101 101 100 100 100 100 100 100 100 100 100 100 101 101 102 103 99 95 95 97 97 97 96 95 94 95 97 97 96 94 93 92 91 91 91 89 78 58 38 28 26 25 25 25 24 29 42 53
42 57 72 82 87 88 88 87 89 90 90 91 92 91 90 91 93 94 95 95 95 96 96 95 95 96 97 98 98 97 95 96 97 97 97 98 99 101 101 100 100 100 100 101 100 100 100 100 100 100 101 102 100 96 93 95 98 99 99 98 96 95 97 98 95 93 93 92 91 90 92 89 76 55 36 27 25 26 25 24 25 29 39 52 58
33 44 58 72 82 87 86 87 90 91 92 92 92 91 91 92 94 95 96 96 97 97 98 97 97 97 98 100 101 99 98 98 97 97 97 98 99 101 102 101 100 100 100 101 101 100 100 100 100 101 100 99 96 93 92 95 99 100 99 98 97 96 95 94 93 93 92 91 91 91 87 72 50 33 27 26 26 25 24 25 30 40 51 58 59
26 32 41 53 68 80 85 88 91 92 93 93 93 92 94 95 96 96 96 96 98 99 99 98 99 100 100 100 101 102 102 100 98 98 97 97 99 101 102 101 101 100 100 101 101 101 100 100 100 100 97 94 92 92 93 95 97 97 97 98 96 93 91 90 91 92 92 93 92 84 66 44 30 26 26 26 25 24 25 30 40 51 58 60 59
24 27 30 38 51 65 76 85 91 94 94 94 94 95 95 96 95 96 96 97 99 100 99 99 101 102 101 100 100 102 103 102 100 99 98 97 98 100 101 101 102 101 100 101 102 100 99 98 97 94 91 90 91 93 94 95 95 94 94 94 92 90 89 91 91 93 94 92 79 58 38 27 25 26 25 24 24 25 30 40 51 58 60 60 58
24 26 27 31 41 51 62 73 84 92 94 95 94 94 95 95 95 95 97 99 101 101 100 101 102 102 103 102 101 101 102 103 101 100 99 99 98 98 100 102 102 101 102 102 101 98 94 92 91 90 90 92 94 94 94 94 93 91 90 90 90 89 89 91 94 94 88 72 49 32 25 25 25 25 24 23 24 29 39 50 57 60 61 61 56
25 25 26 30 38 45 52 61 72 83 90 94 94 93 94 96 97 97 98 100 101 102 101 101 101 101 102 103 103 101 101 102 101 100 100 100 99 99 100 100 100 101 102 101 100 96 91 89 90 91 93 95 95 94 94 93 90 89 90 90 89 89 91 95 94 81 60 40 27 23 24 24 24 23 23 23 28 37 48 56 59 61 61 59 51
25 25 26 31 36 42 48 54 62 72 83 90 94 94 94 96 98 99 99 100 100 101 101 101 102 101 100 102 103 101 100 102 102 100 100 101 100 99 99 98 98 100 100 100 99 96 92 91 93 93 94 96 95 93 92 91 90 90 90 89 90 93 93 86 70 48 30 22 22 24 24 23 23 23 23 27 36 47 55 58 60 62 61 56 45
24 24 27 31 34 39 44 49 56 65 74 83 89 93 95 96 97 98 99 99 99 99 100 101 101 101 99 100 101 101 101 102 102 100 100 101 100 99 99 99 97 98 99 99 99 96 93 94 95 95 95 94 92 91 91 91 90 88 89 92 95 90 74 52 33 23 21 22 22 23 23 23 23 23 26 35 45 53 57 60 62 62 60 53 41
24 25 27 30 32 35 39 44 50 58 65 73 81 89 94 97 97 98 99 99 99 99 99 99 99 99 99 99 100 100 101 103 102 101 101 99 98 99 100 99 97 98 99 100 98 96 95 95 96 96 95 93 93 93 92 89 89 92 93 89 77 58 37 23 19 19 21 22 22 23 23 22 22 25 33 43 52 55 58 60 62 62 59 50 36
24 25 27 30 32 34 37 40 44 49 56 64 73 83 91 96 98 98 99 100 100 100 99 98 98 98 98 98 99 100 101 102 103 102 100 98 97 98 99 99 99 100 100 99 98 97 97 96 96 96 96 95 95 95 92 90 94 94 82 60 39 24 18 19 19 19 20 21 22 23 22 22 25 32 41 49 54 56 57 60 62 62 59 48 34
24 25 28 30 31 33 36 38 41 44 48 55 65 75 84 92 97 99 99 100 102 102 101 99 99 99 98 97 98 99 100 102 103 102 100 97 96 96 97 98 100 101 100 98 98 98 98 97 97 96 97 97 97 96 95 95 90 73 48 28 19 18 18 18 17 18 21 22 22 21 22 24 30 39 47 53 55 55 57 61 63 63 60 48 33
25 26 28 30 31 33 35 37 39 42 45 49 57 66 76 86 94 98 100 100 101 102 102 101 101 101 99 97 96 98 101 102 103 102 100 96 94 94 95 96 99 100 99 97 97 98 99 99 99 99 99 99 98 94 87 77 61 40 24 20 22 20 17 16 17 20 21 21 21 22 23 27 36 45 50 52 54 55 58 63 66 66 61 47 31
26 27 28 29 31 33 35 36 39 41 44 47 51 58 67 78 87 94 99 100 100 101 102 102 102 102 101 98 96 97 100 102 102 101 99 95 92 93 93 94 96 99 99 97 97 97 98 100 101 100 99 98 96 89 78 62 47 36 31 30 27 20 16 16 18 20 21 21 21 22 25 32 42 48 50 51 52 54 59 64 68 68 62 47 31
26 27 27 27 29 31 32 33 36 38 42 45 48 53 61 69 78 88 97 101 100 100 101 102 101 100 99 98 96 95 98 102 103 101 99 95 92 91 91 92 94 96 97 97 97 97 97 98 99 99 98 98 96 91 84 75 67 58 48 37 27 19 17 17 19 21 21 21 20 23 30 38 46 49 50 50 51 55 60 66 68 67 59 44 29
25 25 25 25 26 28 28 29 31 34 37 40 45 51 57 62 69 80 91 98 101 101 100 100 99 98 98 100 99 96 96 100 103 101 99 96 93 91 91 90 91 93 94 95 94 95 96 97 97 97 98 98 95 88 80 72 65 57 44 31 22 17 17 19 21 21 21 20 21 26 34 42 47 48 49 49 51 56 62 66 67 63 52 37 25
Wind_Speed
13 13 13 13 14 14 14 14 14 15 15 15 15 15 14 15 15 15 17 18 18 20 21 22 23 24 25 26 27 28 29 29 30 31 32 34 34 35 35 35 37 37 38 38 39 39 40 40 41 41 41 42 43 43 44 44 44 45 45 45 45 46 46 46 47 46 42 38 36 32 27 24 24 25 25 25 24 25 27 29 31 32 33 32 30
13 13 12 13 13 14 14 14 14 15 16 16 17 17 16 16 16 17 18 18 18 20 21 21 21 23 25 26 27 28 29 29 30 31 32 33 33 34 34 35 37 37 38 39 39 39 40 40 40 39 39 40 40 40 41 42 43 45 46 46 46 46 45 45 46 47 45 43 42 39 36 33 31 30 29 29 29 28 28 30 32 32 33 32 30
15 13 12 12 13 13 14 14 14 15 16 16 17 17 18 18 18 18 19 19 20 21 22 22 22 22 24 25 26 27 28 29 30 31 32 33 33 34 34 35 36 37 38 38 38 38 39 40 40 38 37 37 38 38 39 39 40 42 44 46 47 47 44 43 44 45 44 43 43 42 40 38 37 36 34 34 34 32 31 31 32 32 33 32 30
18 16 14 12 12 13 14 14 14 15 15 16 17 17 18 18 18 19 19 20 21 21 22 24 24 24 25 25 26 27 27 28 30 31 32 32 33 33 34 35 36 36 36 36 36 36 37 38 38 36 36 37 37 37 38 39 39 40 41 42 45 46 45 43 43 43 42 40 40 40 39 38 37 37 36 35 34 33 32 32 33 33 33 32 30
20 19 18 15 13 13 13 14 14 14 15 16 16 17 17 18 19 19 20 20 21 21 22 24 25 26 26 26 27 27 27 28 29 30 31 32 33 33 33 34 35 36 36 35 35 35 36 36 36 35 35 36 36 36 37 37 38 38 38 39 40 42 44 44 43 42 41 39 39 38 38 37 37 36 35 34 33 32 32 33 34 34 33 32 31
22 21 21 19 17 16 14 14 14 14 15 15 16 17 17 18 18 19 20 21 21 21 22 24 25 26 27 27 28 28 27 28 29 30 31 32 32 33 33 34 35 35 35 35 35 35 35 36 35 35 35 35 36 35 35 35 35 36 37 37 36 38 41 43 42 42 41 40 39 39 39 37 36 36 35 33 32 32 33 34 35 34 33 32 31
24 24 23 22 21 20 19 18 17 17 16 16 16 16 17 18 18 19 20 20 21 21 21 22 24 25 26 27 28 28 28 28 29 30 31 31 32 32 32 33 33 34 34 33 33 34 35 35 35 35 35 35 35 34 34 34 34 34 35 34 33 35 38 40 41 41 41 40 40 41 41 39 37 36 35 33 32 33 33 34 35 34 33 32 31
26 25 25 24 24 23 23 22 21 20 19 19 19 19 18 19 19 19 19 20 20 20 21 21 22 24 26 27 28 29 29 30 30 31 31 32 32 32 32 32 32 32 32 32 32 33 33 34 34 34 33 33 33 33 33 32 32 33 33 32 32 33 35 38 39 40 41 40 41 41 41 40 39 38 36 35 34 34 34 34 35 34 32 32 31
26 26 25 25 26 26 26 26 26 24 22 21 22 22 22 22 21 21 21 21 21 21 21 22 22 23 24 26 27 28 29 30 31 31 31 32 31 31 31 31 31 31 31 31 31 32 33 33 33 32 31 31 31 32 32 32 32 32 32 32 31 32 33 36 38 39 40 40 41 42 42 42 41 39 38 36 34 34 33 34 34 33 31 32 31
26 26 25 25 26 26 27 27 28 27 26 25 24 23 23 23 23 23 23 22 22 22 23 23 23 23 24 25 26 27 28 29 30 31 31 31 31 31 31 31 31 31 31 31 31 32 32 32 31 30 30 30 31 31 31 31 31 32 31 31 31 31 32 35 37 39 40 41 42 43 43 44 43 41 38 36 34 34 34 34 33 32 31 32 31
26 25 25 25 26 26 28 28 28 28 28 28 27 26 25 24 24 24 24 24 23 23 24 24 25 24 24 25 25 26 27 27 28 30 31 31 31 31 31 31 31 31 31 31 31 31 31 31 30 30 29 30 30 30 30 30 30 31 31 31 30 31 32 34 37 38 40 41 42 43 43 44 42 39 37 35 34 34 35 34 32 31 31 31 29
27 26 25 25 26 28 29 29 29 28 28 28 28 28 27 26 25 24 23 23 23 23 24 24 25 25 25 25 25 25 25 25 26 27 29 29 30 31 31 31 31 31 31 31 31 31 31 31 30 30 29 28 28 28 29 29 30 30 30 30 30 30 31 33 35 37 39 41 42 42 42 41 39 37 36 35 34 34 34 33 31 30 29 29 28
27 25 24 25 27 31 31 29 28 28 28 28 28 28 29 28 27 27 26 24 23 24 24 23 23 23 24 24 25 25 24 24 25 26 26 27 28 30 31 31 31 31 31 31 31 31 31 31 30 30 28 27 27 28 28 28 29 29 29 30 30 30 30 32 34 36 37 38 39 39 38 36 35 35 33 32 33 32 32 31 29 29 28 27 26
27 27 27 29 31 32 31 30 29 29 28 29 29 30 31 31 30 29 29 28 26 24 24 24 23 22 23 23 24 24 24 24 25 25 24 24 26 29 30 30 30 30 31 31 31 31 30 30 30 29 28 27 27 27 27 27 28 28 28 29 29 29 30 31 33 35 37 37 36 35 33 32 32 32 30 30 30 30 30 29 28 27 27 26 26
28 29 31 31 32 31 32 32 32 32 32 31 31 30 30 30 29 29 29 29 28 25 23 24 24 23 23 23 24 23 23 23 24 24 23 23 24 27 29 30 30 30 31 31 31 31 30 29 29 29 27 27 26 25 25 26 27 27 28 28 28 28 29 29 31 34 36 37 36 33 31 30 30 30 28 28 29 29 28 27 26 26 27 27 27
29 32 32 32 32 33 35 35 34 34 33 32 31 30 29 28 27 26 27 27 27 26 23 22 23 24 24 24 24 24 22 23 25 24 23 22 23 25 27 29 29 30 30 30 31 31 30 29 28 27 26 27 25 24 24 24 26 27 27 27 27 27 27 28 30 32 34 34 34 32 30 29 28 28 27 27 28 27 26 26 26 26 27 27 28
32 35 35 35 35 36 36 35 34 33 31 30 29 28 27 26 25 24 24 23 24 25 25 22 21 23 24 24 25 24 23 23 25 25 23 22 23 25 26 27 28 28 29 29 30 30 30 28 26 25 25 26 24 23 23 24 25 26 26 26 26 26 27 27 28 30 32 32 31 30 29 28 28 28 27 27 26 26 26 26 25 25 26 27 27
34 36 37 37 36 36 34 33 32 30 29 28 27 26 24 24 23 22 21 20 21 23 25 26 23 22 22 23 23 24 24 23 24 25 23 22 23 25 26 27 27 27 28 29 30 29 29 27 25 24 24 24 22 22 23 24 24 25 25 25 26 27 26 26 26 29 31 31 31 30 29 29 28 28 28 26 25 25 25 24 24 25 26 25 26
35 37 37 36 35 34 33 31 30 29 27 26 25 24 23 22 21 21 19 18 20 22 24 25 24 22 21 21 21 22 23 23 24 24 22 21 22 24 25 26 27 27 27 29 29 29 28 25 23 23 22 21 21 21 23 24 24 24 24 25 26 26 25 23 25 27 30 31 32 31 30 29 29 28 27 25 25 24 24 24 25 24 24 24 25
35 36 35 34 33 33 31 30 28 27 26 25 24 23 22 22 21 20 18 17 19 21 22 22 23 22 21 20 20 21 21 22 22 23 22 20 20 22 24 25 26 26 27 28 28 28 28 25 23 21 19 19 19 21 23 23 23 23 23 25 25 22 21 21 23 25 28 29 30 29 29 28 28 27 26 25 24 24 24 24 24 23 23 24 24
35 35 34 33 32 31 29 27 25 24 23 23 22 21 20 20 20 19 18 18 19 21 22 22 23 22 20 20 20 19 19 20 20 21 21 20 19 20 22 23 24 24 26 26 27 27 27 25 22 19 17 17 18 20 22 22 22 22 23 23 21 18 19 20 20 23 25 27 27 27 27 27 27 26 26 25 24 23 23 22 22 22 23 23 23
34 34 34 33 32 30 27 25 24 23 21 20 20 19 18 18 18 18 18 18 20 23 23 23 22 21 20 19 19 19 18 18 17 18 18 18 18 18 20 20 20 21 23 24 26 26 25 24 20 17 15 15 17 20 21 21 21 21 20 18 18 18 18 18 18 21 24 25 26 27 27 27 26 26 25 24 23 21 20 21 21 22 22 22 23
34 34 33 33 31 29 26 24 23 23 21 20 18 18 17 17 17 17 18 18 20 23 23 22 22 21 20 19 18 18 18 17 16 15 15 15 15 16 18 18 18 19 21 23 23 23 23 21 18 15 14 15 18 19 19 19 20 19 16 16 17 17 18 18 20 22 23 24 26 26 26 26 25 25 24 22 20 19 19 20 21 21 22 22 23
33 33 33 32 30 27 25 24 24 23 21 20 19 18 18 18 18 18 18 18 20 22 22 22 22 22 21 20 19 18 18 17 15 14 13 13 13 13 15 16 16 18 19 21 21 21 20 19 16 14 14 16 18 18 18 19 18 15 14 15 16 17 19 20 21 22 23 24 25 25 25 25 24 23 21 18 18 18 19 19 20 20 21 22 23
33 33 33 32 30 27 25 25 25 23 20 20 20 20 20 20 19 19 19 19 20 22 23 23 23 22 22 20 19 18 18 17 15 14 13 12 12 12 13 14 15 16 18 19 19 19 18 16 14 13 15 16 17 18 18 17 16 14 14 15 17 19 20 21 22 23 23 24 24 24 23 22 21 19 17 16 17 18 18 19 19 20 21 22 22
33 33 32 31 29 28 27 26 25 23 21 20 20 21 21 21 21 21 21 21 22 23 23 23 23 22 22 21 20 19 18 17 15 14 13 12 12 12 12 13 15 16 17 18 17 17 16 14 13 14 15 16 16 16 16 14 14 14 15 17 19 20 21 21 22 23 23 23 23 22 20 19 18 17 16 16 17 17 18 19 20 20 20 21 22
33 32 31 30 30 29 28 27 25 24 23 22 21 20 20 20 21 21 21 22 23 24 24 23 22 21 20 20 20 19 18 16 15 14 14 13 12 12 12 13 14 16 17 18 17 16 15 13 13 14 14 15 14 14 13 13 14 15 16 18 20 21 21 21 22 22 22 21 20 19 18 18 17 15 15 16 16 17 18 19 19 19 19 21 23
32 32 31 31 30 29 28 27 26 25 24 23 22 21 21 21 20 19 20 21 23 24 24 24 22 20 20 20 20 19 18 16 15 14 14 14 13 12 12 13 13 15 18 19 18 16 14 13 14 14 14 14 14 14 14 14 15 16 18 19 20 21 21 22 22 22 21 19 19 18 18 17 16 15 15 16 16 16 17 18 19 19 20 21 24
32 32 31 31 30 28 27 26 26 25 24 24 23 22 21 21 20 19 18 18 20 21 23 23 22 21 20 19 19 19 18 17 15 15 14 14 13 12 12 12 12 15 17 18 17 16 14 14 14 15 14 14 14 14 15 15 16 17 18 19 20 22 22 22 23 22 21 20 19 18 17 16 15 15 16 17 16 16 17 18 18 19 20 22 23
34 32 31 30 29 29 27 26 26 25 25 25 24 23 20 18 18 18 18 17 17 18 19 20 21 21 20 18 17 17 17 17 16 15 14 14 13 12 11 11 11 13 15 16 16 15 15 15 15 15 14 14 14 15 15 15 16 17 19 20 21 22 22 23 23 22 20 19 18 16 15 15 15 16 16 16 16 16 17 17 18 19 20 21 23
35 33 31 30 29 29 28 27 26 25 24 25 26 26 23 20 18 18 17 17 17 16 17 17 18 19 19 18 17 16 16 16 15 14 14 13 12 11 10 10 10 11 12 13 15 16 16 15 14 14 13 14 14 14 15 15 16 17 19 20 21 22 23 22 22 21 19 18 17 15 15 16 16 16 16 15 15 16 17 17 18 19 20 21 23
35 33 31 30 29 29 28 27 26 25 25 25 25 26 26 25 23 21 19 17 17 17 17 17 18 18 18 18 17 16 16 15 14 13 12 12 11 10 10 9 8 9 10 10 13 15 15 14 13 13 13 13 14 14 14 15 16 17 19 20 21 22 21 20 19 19 18 17 16 15 16 16 15 15 15 15 16 16 17 17 18 19 20 22 23
35 34 32 31 30 29 29 28 27 25 25 26 26 25 26 27 27 25 23 21 19 18 19 19 20 19 18 17 16 16 15 15 14 12 11 10 9 9 9 8 7 8 7 8 11 13 13 12 12 12 12 13 13 14 14 15 16 16 18 19 19 18 18 18 18 18 17 16 16 16 16 15 15 15 15 15 15 16 17 18 18 19 21 22 23
34 34 33 32 30 29 29 28 27 26 25 25 25 25 25 26 26 26 26 24 23 21 20 20 20 21 19 18 16 15 15 14 13 12 11 10 9 8 8 6 6 7 6 8 10 11 12 12 12 11 12 12 13 14 14 14 14 15 15 16 16 16 17 17 17 16 16 16 16 16 15 14 14 14 14 15 16 16 17 17 18 20 21 22 23
34 33 33 32 30 29 28 27 26 26 25 25 25 25 25 25 24 24 24 24 23 23 21 20 20 21 20 18 17 16 15 14 13 11 10 9 7 7 6 5 7 7 7 8 10 11 11 11 11 11 11 12 13 14 13 12 13 13 14 15 15 16 16 16 16 16 16 16 15 14 13 14 14 14 14 15 16 16 17 17 18 20 20 22 24
35 34 34 32 31 29 28 27 26 26 26 26 26 25 24 23 23 23 23 22 22 22 21 20 20 20 19 18 18 17 15 14 12 10 9 8 6 5 5 6 8 9 8 9 11 11 10 10 10 10 10 11 12 13 12 12 12 12 13 14 15 16 16 16 16 15 15 14 13 13 13 13 13 13 14 15 15 16 17 17 18 20 21 22 24
35 35 34 33 32 30 28 28 27 27 26 26 26 25 24 23 23 23 23 22 22 22 22 21 20 20 19 19 19 18 16 14 12 10 9 8 6 5 5 6 9 9 9 10 11 10 9 8 8 9 9 11 12 12 11 11 12 12 13 15 15 15 15 15 15 14 13 12 12 12 12 13 13 13 14 15 16 16 17 18 18 20 21 23 24
34 34 34 33 32 31 30 29 29 28 27 26 25 25 25 24 24 24 23 22 22 22 21 21 20 19 18 18 19 19 16 14 12 10 9 8 7 6 5 7 9 9 9 10 11 11 9 9 10 10 10 10 11 11 11 11 12 13 14 15 15 15 15 15 14 13 12 12 12 12 12 12 13 14 14 15 16 16 17 18 19 21 22 23 25
33 34 33 33 32 31 31 31 30 29 28 27 26 26 26 25 25 24 23 23 22 22 22 21 19 18 18 18 18 17 15 14 12 11 10 9 8 7 6 7 8 9 9 9 11 12 11 11 11 11 11 10 10 10 11 12 13 14 15 15 15 15 15 13 12 12 12 12 12 12 12 12 13 14 15 15 15 16 17 18 20 21 23 24 25
33 33 33 33 33 33 32 32 31 29 28 28 27 27 26 25 24 24 23 23 23 23 22 22 20 18 19 19 17 16 14 12 11 12 12 11 9 7 6 6 8 9 9 9 10 11 12 12 11 10 10 10 9 10 11 12 14 15 15 16 16 15 13 12 12 11 11 12 12 12 13 13 13 14 14 15 15 16 17 19 20 22 23 24 25
32 33 33 34 34 34 33 32 31 30 29 28 27 26 26 25 25 24 24 24 24 24 23 22 20 18 18 19 18 16 13 10 8 10 12 12 11 8 7 7 8 9 9 8 9 9 10 10 9 8 8 9 10 10 12 13 14 15 15 15 15 14 12 11 11 11 11 11 12 12 13 13 13 14 14 15 15 17 18 19 21 22 23 24 26
31 32 33 34 34 34 33 33 32 31 29 28 27 26 26 26 26 25 25 24 24 24 23 22 20 19 18 18 17 16 13 8 7 8 10 11 11 9 7 7 7 7 8 7 7 7 7 6 7 8 8 8 10 11 12 13 14 14 13 13 13 12 11 11 11 11 11 12 13 13 13 13 13 14 14 15 16 18 19 20 21 22 24 24 25
29 31 32 33 34 34 34 33 32 31 30 29 28 27 26 26 25 25 24 24 23 23 23 22 21 19 19 18 17 16 12 8 7 8 8 10 10 9 7 6 6 5 5 6 6 6 6 6 7 8 8 9 10 10 11 12 13 12 12 12 11 10 10 10 11 11 12 12 12 12 12 13 13 14 14 15 17 18 20 21 22 23 24 25 26
28 30 31 32 33 34 33 33 33 32 31 30 29 28 27 26 25 24 24 23 22 22 22 21 20 19 19 17 16 16 13 10 8 8 8 9 9 8 7 6 5 4 3 4 5 5 6 6 8 8 9 9 9 10 11 12 11 11 10 10 9 10 10 10 10 11 12 12 12 12 12 13 13 14 15 16 17 19 20 21 22 23 24 25 25
28 29 30 31 32 33 33 33 34 33 32 31 30 29 28 27 26 25 24 24 23 22 21 20 19 18 18 17 16 15 15 13 11 10 9 9 9 7 6 6 5 4 4 4 5 6 7 7 8 9 9 9 9 9 10 10 10 10 9 8 9 9 9 10 11 11 11 12 12 12 12 13 13 14 16 17 18 20 20 21 22 23 24 24 25
26 28 29 30 31 31 32 33 34 34 34 33 32 31 29 28 27 26 25 24 23 23 22 21 20 18 17 17 16 15 15 14 13 11 10 10 9 7 7 6 6 5 5 5 5 6 7 8 8 8 8 8 9 10 10 9 9 9 9 8 8 9 9 10 11 11 11 12 12 12 13 13 13 15 16 18 19 20 21 22 23 23 24 24 25
25 26 27 28 29 30 31 32 33 33 34 34 33 32 30 29 27 26 25 24 23 23 22 20 19 19 18 17 16 15 15 15 14 12 10 10 9 9 8 7 6 7 7 6 6 7 8 8 8 8 8 8 9 9 9 9 9 8 8 8 8 9 9 11 12 11 11 12 12 13 13 13 14 15 17 18 19 21 22 23 23 24 24 25 25
24 24 25 26 28 29 30 31 32 33 33 33 33 33 31 30 28 27 27 25 24 23 22 21 20 19 18 17 16 16 15 15 14 12 10 9 9 9 9 8 8 8 8 7 7 8 8 8 7 7 7 8 8 8 8 8 7 7 7 8 9 10 11 11 11 11 11 12 12 13 13 14 15 16 17 18 19 21 22 23 24 24 24 25 25
23 23 24 25 26 28 29 30 31 32 33 33 33 33 32 31 30 28 27 26 24 23 22 21 20 19 18 16 16 16 16 15 14 12 10 9 9 9 10 9 9 9 9 9 9 9 9 9 8 7 7 7 7 7 7 7 7 8 9 9 11 12 12 12 11 11 12 12 12 13 14 15 16 17 18 19 20 21 22 23 23 24 24 24 25
22 23 24 25 26 27 28 29 30 31 32 32 33 33 32 31 30 29 28 27 25 24 22 21 19 18 16 15 15 15 15 15 15 13 10 9 9 9 10 10 10 10 11 11 11 11 11 10 9 8 7 7 7 7 7 8 8 9 10 11 12 13 13 12 12 12 12 12 12 13 14 15 16 18 19 20 21 22 22 23 23 23 23 23 24
22 22 23 24 25 26 27 28 29 30 31 32 32 32 31 31 31 30 29 27 26 25 23 21 19 18 17 16 16 15 15 15 15 13 11 10 9 9 10 11 11 11 12 13 13 13 13 12 11 10 8 8 7 7 8 9 9 10 11 12 13 13 13 12 13 13 13 12 12 13 15 16 17 18 19 20 21 22 22 23 23 22 23 23 23
Wind_Direction
321 316 312 308 306 307 308 308 307 306 305 304 303 301 297 293 289 284 279 275 271 267 263 260 259 258 257 255 253 252 251 249 248 247 247 248 249 249 250 250 251 252 252 252 253 253 253 253 252 252 253 252 252 251 250 249 248 248 249 249 249 247 245 244 248 252 253 253 253 253 252 251 253 256 258 260 262 261 257 252 248 245 243 241 243
327 319 314 312 308 304 302 301 301 301 300 300 299 298 297 294 291 287 284 281 278 275 271 266 262 259 258 256 255 254 253 252 251 250 250 251 251 251 251 251 252 253 253 253 254 255 255 255 255 254 254 255 255 255 255 254 252 250 249 249 250 249 248 248 249 252 253 253 253 252 252 251 252 254 257 260 264 263 259 253 248 243 240 240 243
344 332 322 315 312 308 303 300 298 296 296 297 296 296 295 294 292 290 289 288 285 283 280 278 273 266 263 260 258 257 255 255 255 254 254 253 252 252 252 252 252 253 253 254 254 255 255 255 255 255 255 255 256 256 257 257 255 254 252 251 251 251 249 249 250 252 253 253 254 253 253 252 252 253 254 257 261 262 260 254 247 241 240 241 245
357 351 343 332 320 314 309 304 300 296 294 294 293 294 294 293 292 290 289 288 286 285 283 281 280 276 272 269 266 263 260 258 257 256 256 256 256 255 254 253 253 253 253 254 254 254 254 255 255 254 255 255 256 256 256 257 257 256 255 254 252 252 250 248 248 250 252 253 254 254 253 252 252 252 253 254 256 258 257 252 245 239 239 242 248
356 355 353 349 339 329 320 313 308 305 303 300 298 296 293 292 291 289 288 287 286 285 283 282 281 279 277 275 271 268 264 260 258 257 257 257 257 257 256 255 255 255 255 255 255 255 254 254 254 254 254 255 256 257 257 258 259 258 258 256 254 253 251 248 247 248 249 250 251 252 251 250 250 250 251 252 253 253 252 248 242 239 240 245 252
357 354 353 351 348 344 338 330 323 315 311 308 305 304 300 297 294 291 290 289 288 288 288 287 285 283 281 278 274 270 266 263 260 259 258 256 256 256 256 256 257 258 258 257 257 257 257 257 257 256 256 257 258 260 260 261 262 261 260 258 256 254 251 248 246 245 246 247 248 249 248 247 248 249 249 250 251 251 249 245 241 239 243 249 256
358 357 354 352 350 348 346 344 339 331 323 316 309 305 301 299 297 296 294 292 291 290 289 288 287 285 283 279 275 272 268 264 262 260 259 257 256 256 256 256 257 258 258 259 259 258 258 258 259 258 258 259 261 262 263 263 263 263 261 259 257 254 251 248 245 243 243 243 243 245 246 246 246 247 248 248 248 247 244 242 240 242 247 253 259
354 355 354 353 350 348 347 346 343 339 333 326 320 312 305 300 295 293 293 293 292 291 289 287 285 283 282 278 276 273 268 266 264 261 259 258 258 258 257 257 257 257 258 258 258 259 259 259 259 259 260 261 262 263 263 264 264 263 262 259 256 253 251 247 244 242 241 240 240 242 244 245 244 245 245 245 244 244 243 242 244 246 250 256 261
350 350 350 350 347 346 345 342 340 338 334 330 326 322 317 311 304 299 295 292 290 289 288 287 285 284 283 281 278 275 271 268 265 263 261 260 259 259 258 258 258 258 258 257 257 258 258 258 258 259 260 260 261 261 262 262 262 263 261 259 256 253 251 247 243 241 239 238 238 239 241 243 243 243 243 243 245 245 244 244 246 250 255 259 264
347 345 344 344 342 340 338 337 336 335 333 331 329 326 323 319 315 311 305 300 295 291 288 287 287 287 287 285 282 278 274 271 269 266 263 261 261 259 258 257 257 257 257 257 257 257 258 259 259 259 259 259 259 260 261 261 261 261 261 259 256 253 251 248 244 240 238 236 236 236 238 240 241 242 244 245 245 244 244 245 248 253 258 262 265
345 343 341 339 336 334 332 332 332 331 331 329 328 327 325 323 321 318 315 311 306 300 296 292 290 289 288 286 285 283 280 277 272 269 265 263 261 259 258 257 256 256 256 257 257 258 258 259 259 258 258 258 260 260 261 261 260 259 259 258 257 254 252 250 246 241 237 236 236 235 237 240 241 242 244 244 243 243 245 248 251 255 260 265 268
343 341 338 335 332 329 329 329 328 327 326 324 323 322 321 320 320 318 315 313 309 306 303 300 298 295 291 288 287 287 286 282 275 270 265 263 261 259 258 257 256 256 256 257 258 258 259 259 259 259 259 259 261 261 261 261 260 259 259 259 258 256 254 251 247 242 239 237 235 235 236 239 242 243 243 243 243 244 246 249 254 258 262 266 271
339 337 335 331 327 326 326 326 324 323 321 319 318 316 315 314 314 312 309 307 305 303 303 302 302 300 296 292 288 286 286 284 279 273 268 264 261 259 257 256 256 256 256 257 258 258 259 261 261 262 262 261 262 261 261 261 260 260 259 259 259 258 254 251 246 243 240 237 236 237 238 240 243 244 244 244 245 245 247 251 256 260 264 267 272
342 339 334 329 326 326 327 326 324 322 320 317 315 312 311 310 309 307 306 304 303 300 298 298 299 299 297 294 289 285 284 284 282 278 272 265 260 259 259 256 254 255 255 256 258 258 260 262 263 264 263 262 261 260 260 260 260 260 260 260 260 258 255 251 247 242 238 234 233 236 238 240 243 246 245 244 245 245 247 252 257 261 266 270 273
346 340 333 331 332 332 331 328 326 323 321 319 316 313 311 309 308 307 306 305 304 302 297 293 293 294 294 292 289 285 284 284 282 280 275 267 260 258 259 258 256 255 256 257 258 260 260 261 263 264 264 264 262 260 259 259 259 260 260 260 260 258 256 254 248 242 237 233 231 231 233 236 239 243 243 242 243 245 248 253 257 262 268 272 274
342 337 337 338 338 335 332 329 327 325 323 322 320 318 316 313 311 311 309 307 306 305 302 296 291 291 290 288 287 285 283 282 282 281 277 269 261 257 257 258 258 257 257 258 258 260 261 261 262 264 265 265 264 262 260 259 259 260 260 260 260 259 257 253 247 241 237 234 230 228 230 233 235 238 239 238 241 244 248 253 259 264 270 272 274
339 339 342 341 336 333 331 328 327 326 325 325 323 322 320 318 316 315 312 311 310 308 308 304 297 291 287 284 284 283 280 279 280 281 279 271 263 258 256 257 259 259 259 260 259 259 260 261 263 263 264 264 264 262 261 260 259 260 260 260 260 259 256 250 243 238 235 232 228 225 228 231 232 234 236 237 241 245 249 255 261 266 270 273 277
341 342 341 337 334 333 332 329 329 329 329 329 327 326 323 320 318 316 313 312 310 308 307 307 304 298 290 285 283 281 279 277 277 279 279 272 264 260 258 258 258 259 259 260 261 261 261 262 262 261 261 262 262 261 260 260 260 260 260 260 259 257 255 249 243 238 233 227 224 222 224 227 229 232 235 239 242 246 251 257 262 266 270 275 281
342 340 338 336 335 336 335 333 333 333 333 332 330 327 324 321 319 316 313 311 308 305 307 309 308 305 299 292 288 284 281 277 276 277 277 273 265 260 258 257 258 259 258 259 261 263 264 264 262 262 262 261 260 259 258 259 259 260 260 258 257 257 257 253 245 237 231 226 223 221 222 225 228 232 235 240 244 248 252 257 261 267 272 277 281
341 338 337 338 338 338 338 336 336 336 335 333 330 329 329 328 326 322 317 312 308 308 312 314 312 310 306 301 295 290 286 283 279 278 277 274 268 262 259 258 259 259 259 259 261 264 266 267 265 264 264 260 257 256 257 257 257 256 255 255 258 261 260 254 244 235 229 226 224 223 223 226 229 232 236 239 244 248 253 258 264 270 273 276 280
340 338 340 342 343 342 340 338 338 338 336 333 332 335 336 334 331 327 322 319 317 318 322 322 318 315 311 306 301 296 292 288 283 281 279 276 271 265 261 260 260 260 260 261 262 263 265 267 268 267 262 257 253 252 253 254 253 252 253 256 260 260 254 248 241 231 224 222 221 222 223 226 229 232 235 238 243 249 256 262 267 270 272 277 281
341 342 343 345 345 344 343 342 341 341 340 338 337 339 341 338 335 332 330 329 326 324 325 326 324 322 319 314 308 302 297 293 287 282 279 276 272 266 262 260 260 259 259 260 260 262 263 266 268 267 261 254 250 248 249 250 250 250 252 255 254 249 243 238 230 222 218 216 218 219 222 225 227 229 233 238 244 251 258 262 266 269 273 277 279
344 346 346 347 347 347 346 346 347 348 348 346 345 346 346 343 340 339 336 331 324 322 325 328 329 328 326 323 318 310 303 299 295 288 281 277 272 265 262 259 256 255 256 258 260 262 264 265 266 264 257 248 245 245 246 247 249 251 250 247 243 238 233 226 218 214 213 213 216 219 221 223 226 229 233 240 246 252 257 260 264 269 273 275 277
348 349 349 350 350 350 351 353 355 355 353 351 351 352 351 348 345 342 338 331 326 326 329 333 333 332 331 329 325 318 312 308 304 299 291 283 275 266 261 256 253 253 254 256 258 260 262 264 264 259 251 246 245 245 244 245 247 246 242 237 231 223 220 218 213 209 209 212 215 217 220 222 225 230 235 241 247 251 254 259 263 267 270 273 276
351 351 352 353 353 353 356 359 360 358 358 357 357 357 355 352 349 346 344 340 336 334 334 335 334 333 333 331 328 324 319 315 311 306 299 291 281 271 261 253 251 251 252 254 257 259 261 263 260 253 248 245 244 242 241 243 243 238 232 226 219 214 214 213 209 207 209 211 213 216 218 222 226 230 235 241 246 251 256 260 262 265 268 271 273
353 353 353 355 356 357 0 2 0 359 1 4 3 0 358 354 350 349 347 344 340 338 337 336 334 331 330 330 329 326 322 319 315 310 304 297 286 275 262 250 245 246 250 253 255 256 258 257 252 246 243 242 242 241 241 239 235 229 221 215 211 211 211 210 208 208 209 211 213 215 218 222 226 230 236 242 249 255 259 262 265 268 272 274 276
355 354 355 358 0 0 1 1 0 1 3 5 4 3 1 356 352 351 348 344 340 338 337 337 335 331 327 326 325 324 321 319 316 311 306 301 292 280 266 252 241 238 243 248 250 251 252 250 247 243 241 239 239 238 234 229 224 219 213 208 208 209 208 208 209 210 210 211 213 215 219 224 228 232 239 246 252 257 261 265 270 273 276 278 280
356 355 358 1 2 1 360 360 1 2 3 4 4 4 3 358 355 354 350 343 338 335 335 337 337 332 327 323 322 320 319 319 317 312 308 306 301 290 275 261 245 235 237 244 247 249 249 247 242 238 235 233 232 229 225 220 217 214 209 205 206 206 205 206 209 210 210 210 213 217 221 226 231 237 245 250 253 258 263 267 271 274 277 279 282
358 359 1 3 2 1 0 1 2 2 1 2 4 6 5 359 356 356 353 344 336 333 334 336 336 332 328 323 319 316 316 316 315 311 308 306 304 297 285 271 254 241 240 244 248 248 246 242 237 234 231 229 227 226 223 217 212 210 207 205 204 205 204 204 207 208 208 210 215 219 223 229 235 242 248 252 256 260 264 267 270 275 278 281 286
359 1 2 3 3 1 1 1 2 1 0 0 1 3 5 3 360 357 353 345 339 335 334 334 334 331 328 324 317 312 310 309 309 308 306 305 304 300 292 281 264 250 245 244 244 245 243 240 236 232 229 227 226 225 222 216 211 209 206 204 204 205 205 205 206 207 209 213 218 221 226 234 240 245 250 255 260 263 265 268 272 276 279 284 289
358 1 3 4 3 1 1 2 2 1 1 1 360 358 359 3 6 3 356 348 344 340 336 336 337 334 330 327 321 315 311 307 306 306 305 304 303 301 295 283 266 253 246 239 237 240 240 238 235 231 227 226 226 225 222 218 213 210 207 205 205 207 207 205 206 209 212 216 220 224 231 238 243 248 254 259 262 264 267 270 274 279 284 288 291
358 0 3 4 4 2 1 2 1 360 1 2 360 357 355 357 1 4 2 356 352 347 343 344 346 342 336 331 327 322 318 313 309 306 304 302 301 298 293 280 259 248 244 237 236 239 239 238 237 233 227 225 226 226 224 221 217 214 211 207 207 208 208 206 207 211 215 219 223 228 235 240 245 251 257 260 263 267 270 274 279 285 289 291 294
360 0 2 4 5 3 3 1 359 0 2 1 358 358 358 356 356 356 358 358 357 353 349 347 347 346 341 335 330 326 323 318 313 309 305 302 300 296 291 277 250 239 236 231 234 239 240 240 238 235 230 227 226 227 227 226 223 220 216 212 210 210 209 207 210 213 216 221 225 230 235 242 247 253 256 260 264 269 273 279 285 289 291 293 298
2 1 2 5 5 4 3 0 358 0 3 1 357 357 359 357 354 352 352 352 353 354 351 345 342 343 342 338 334 330 326 321 318 314 308 304 300 297 290 267 234 224 224 225 231 238 241 241 239 236 232 231 230 230 230 230 229 226 221 216 212 209 208 209 211 214 217 222 227 232 238 244 249 253 256 260 265 270 275 281 286 289 292 297 301
5 4 5 5 5 5 3 1 0 3 3 1 359 358 357 355 353 351 350 349 347 348 348 343 339 339 340 339 338 335 330 326 323 318 311 308 304 297 283 246 218 216 214 215 227 238 243 244 243 240 234 232 232 233 230 228 228 225 219 214 210 207 207 209 211 214 219 224 230 238 244 247 250 253 258 262 267 272 278 283 286 290 295 299 301
7 7 7 6 5 5 3 3 4 6 4 1 360 359 357 355 353 352 350 348 344 343 343 341 339 339 340 340 339 338 335 331 327 321 316 312 306 293 267 226 216 221 216 209 219 234 241 242 243 244 239 232 232 233 229 222 220 218 213 211 210 207 207 210 213 218 223 229 237 244 247 250 254 258 262 267 271 276 282 287 290 294 298 300 301
9 9 8 7 6 5 4 5 7 7 5 1 358 356 356 356 355 353 350 348 345 342 341 339 339 340 339 338 336 337 337 335 330 326 323 320 311 290 259 226 224 233 228 213 213 222 228 229 229 233 237 234 230 230 226 217 213 212 209 209 209 206 206 211 217 223 231 239 245 247 249 253 258 261 264 270 275 280 285 290 293 295 297 298 300
10 10 9 9 8 6 5 6 8 7 5 1 357 356 356 356 355 353 351 348 346 343 341 339 339 339 338 335 333 333 335 335 332 328 327 328 321 297 263 237 234 243 243 227 216 213 213 217 218 220 229 233 227 223 221 216 212 212 210 209 209 209 211 217 224 232 242 249 250 251 252 255 259 263 267 272 278 284 288 292 294 296 298 300 304
11 11 10 10 10 8 7 7 7 5 3 0 358 356 355 354 353 352 351 349 348 345 342 341 340 338 336 335 333 330 328 329 331 329 329 333 330 309 278 251 244 250 252 241 228 219 216 220 223 223 227 231 223 216 217 217 216 215 214 213 215 218 221 226 234 243 250 252 252 253 256 257 260 266 271 277 283 288 291 293 296 298 301 304 308
10 10 10 11 12 11 10 8 6 4 2 360 358 355 353 353 353 352 351 351 349 346 344 342 339 335 333 335 335 329 320 318 320 321 324 330 332 320 297 272 258 256 256 248 240 235 230 230 233 232 230 229 223 216 216 219 220 219 217 218 223 228 231 237 245 251 253 253 253 255 257 259 263 269 275 281 287 290 292 295 297 300 303 307 310
9 8 9 12 13 12 11 10 8 5 3 0 358 355 353 353 353 352 352 351 349 346 345 342 340 335 332 333 336 332 322 310 305 311 319 325 330 329 316 293 274 266 262 256 252 250 246 242 243 240 231 227 225 220 219 221 223 221 221 224 229 234 239 246 253 254 252 252 255 257 258 262 267 273 280 287 290 292 295 297 300 303 306 309 311
7 7 9 11 12 11 11 11 9 8 6 4 1 358 355 353 352 351 351 350 348 346 345 343 342 338 333 331 334 335 329 311 294 303 313 316 320 326 326 312 293 279 272 268 263 259 255 248 242 239 232 226 224 222 221 224 225 225 226 229 234 241 248 252 254 252 249 250 254 257 262 268 274 280 286 290 292 295 297 300 302 306 308 311 313
6 7 9 11 11 11 11 11 10 9 8 7 4 1 358 355 351 349 348 348 348 348 346 344 343 339 335 332 333 336 334 319 295 301 309 306 307 317 327 321 307 292 281 277 268 259 253 241 233 231 228 224 223 221 222 225 228 228 229 234 241 248 252 251 249 250 251 252 255 260 268 275 282 286 290 293 295 297 300 302 305 308 310 312 313
4 6 9 10 10 10 10 10 10 10 9 9 7 5 2 357 353 349 347 346 349 350 349 347 345 342 338 335 332 332 332 321 302 302 306 300 300 312 322 314 303 294 286 276 259 248 242 234 229 228 226 224 224 225 225 228 231 233 236 241 245 249 250 250 249 251 255 257 261 267 273 278 284 289 292 295 297 298 301 304 307 309 311 312 312
3 5 8 9 9 9 10 10 10 9 9 9 9 8 4 360 355 352 348 346 348 350 351 351 350 346 341 337 331 327 327 323 312 304 301 298 299 308 310 299 292 288 277 262 244 235 232 230 229 231 231 230 232 234 235 237 239 242 243 243 242 243 248 253 254 254 257 261 267 273 277 281 287 291 294 297 298 300 303 307 308 310 311 311 311
2 5 7 8 8 9 9 10 10 9 8 8 8 8 6 3 358 354 351 348 347 348 350 351 351 348 344 338 331 325 324 323 320 314 306 300 299 300 295 289 285 276 261 247 234 230 231 231 232 234 236 237 238 241 243 243 240 237 236 234 237 244 250 255 258 260 261 266 271 277 281 285 290 292 295 298 300 302 306 308 309 311 311 311 312
1 3 5 6 7 8 8 9 9 9 9 8 8 7 7 4 1 357 354 351 348 346 347 349 349 349 346 342 336 328 323 322 323 321 314 303 295 290 287 284 278 269 258 245 237 235 234 235 237 240 242 243 242 242 240 235 229 227 228 233 243 251 255 258 262 265 268 272 277 281 286 290 293 295 298 301 302 305 309 310 311 311 311 311 313
359 2 4 5 6 7 8 9 9 9 8 8 8 7 6 5 3 0 357 353 349 347 347 348 348 347 346 344 339 332 326 324 326 326 318 306 295 287 283 278 271 266 259 248 240 239 237 240 247 250 247 244 240 234 229 224 223 227 234 242 252 259 262 263 266 269 271 275 280 285 290 294 296 298 301 303 304 307 310 311 311 311 311 311 315
357 360 2 4 5 6 7 8 8 8 7 7 7 7 6 5 4 3 359 356 352 349 348 348 346 344 344 345 342 335 328 327 330 329 320 306 293 284 278 273 267 264 260 252 245 243 243 246 252 255 251 247 241 234 231 230 232 238 243 248 254 261 266 267 269 270 271 276 282 287 291 296 299 300 303 305 307 310 311 311 311 311 311 312 316
356 358 360 2 4 5 6 6 6 6 5 5 5 5 5 5 5 4 2 359 355 353 350 348 346 345 346 349 348 341 332 328 329 329 322 307 292 281 276 271 265 262 260 255 249 248 249 252 256 259 258 257 252 245 241 239 238 241 245 248 253 261 266 268 269 271 273 278 284 288 292 296 299 301 304 307 309 312 313 312 311 311 311 313 316
354 355 357 359 1 3 4 4 4 3 3 3 3 3 3 4 5 5 3 1 358 356 353 349 347 347 349 348 346 342 335 329 328 327 321 307 292 280 275 270 264 261 260 258 255 253 253 255 258 261 263 265 263 257 251 245 241 241 244 248 253 260 265 267 268 272 276 281 286 290 293 297 300 302 305 309 311 313 314 312 311 311 312 314 317